De Queen, AR

2:27 PM CST on January 18, 2017 (GMT -0600)
Helms Sevier County

Weather History for KDEQ - March, 2013

Change the Weather History Date:

Friday, March 22, 2013

  Actual Average Record
Temperature  
Mean Temperature 43 °F 55 °F  
Max Temperature 47 °F 68 °F 84 °F (1997)
Min Temperature 39 °F 42 °F 24 °F (1955)
Degree Days  
Heating Degree Days 22 11  
Month to date heating degree days 333 290  
Since 1 July heating degree days 2648 2781  
Cooling Degree Days 0 0  
Month to date cooling degree days 0 0  
Year to date cooling degree days 4 2  
Moisture  
Dew Point 41 °F    
Average Humidity 91    
Maximum Humidity 96    
Minimum Humidity 85    
Precipitation  
Precipitation 0.02 in 0.19 in 0.93 in (1968)
Month to date precipitation 0.62 2.96  
Year to date precipitation 4.58 9.96  
Snow  
Snow 0.00 in - - ()
Month to date snowfall 0.0  
Since 1 July snowfall 4.5  
Snow Depth 0.00 in    
Sea Level Pressure  
Sea Level Pressure 29.80 in    
Wind  
Wind Speed 10 mph (ENE)    
Max Wind Speed 17 mph    
Max Gust Speed 24 mph    
Visibility 4 miles    
Events Rain    
T = Trace of Precipitation, MM = Missing Value Source: NWS Daily Summary

Daily Weather History Graph

Daily Weather History Graph

Search for Another Location

Airport or City:

Trip Planner

Search our weather history database for the weather conditions in past years. The results will help you decide how hot, cold, wet, or windy it might be!

Date:

Astronomy

Mar. 22, 2013 Rise Set
Actual Time 7:18 AM CDT 7:31 PM CDT
Civil Twilight 6:53 AM CDT 7:56 PM CDT
Nautical Twilight 6:24 AM CDT 8:25 PM CDT
Astronomical Twilight 5:54 AM CDT 8:54 PM CDT
Moon 3:09 PM CDT (3/22) 4:07 AM CDT (3/22)
Length of Visible Light 13h 02m
Length of Day
12h 12m
Waxing Gibbous, 77% of the Moon is Illuminated
Mar 22
Waxing Gibbous
Mar 27
Full
Apr 2
Last Quarter
Apr 10
New
Apr 18
First Quarter

Hourly Weather History & Observations

Time (CDT) Temp. Windchill Dew Point Humidity Pressure Visibility Wind Dir Wind Speed Gust Speed Precip Events Conditions
12:53 AM 39.9 °F 31.4 °F 36.0 °F 86% 29.77 in 6.0 mi East 16.1 mph 21.9 mph 0.03 in Rain Light Rain
1:51 AM 39.2 °F 30.8 °F 37.4 °F 93% 29.78 in 6.0 mi ENE 15.0 mph - 0.02 in Rain Light Rain
1:53 AM 39.9 °F 32.1 °F 37.0 °F 89% 29.78 in 6.0 mi ENE 13.8 mph - 0.02 in Rain Light Rain
2:36 AM 39.9 °F 31.4 °F 37.0 °F 89% 29.76 in 5.0 mi East 16.1 mph 21.9 mph 0.00 in   Overcast
2:53 AM 39.0 °F 30.6 °F 37.0 °F 93% 29.75 in 3.0 mi East 15.0 mph - 0.00 in   Overcast
3:44 AM 39.9 °F 32.1 °F 37.0 °F 89% 29.75 in 2.5 mi East 13.8 mph 21.9 mph N/A   Overcast
3:53 AM 39.9 °F 33.4 °F 37.0 °F 89% 29.75 in 3.0 mi East 10.4 mph 20.7 mph N/A   Overcast
4:41 AM 41.0 °F 35.8 °F 39.0 °F 93% 29.75 in 4.0 mi East 8.1 mph - 0.00 in Rain Light Rain
4:53 AM 42.1 °F 36.6 °F 39.9 °F 92% 29.74 in 4.0 mi East 9.2 mph - 0.00 in Rain Light Rain
5:21 AM 42.1 °F 37.1 °F 39.9 °F 92% 29.75 in 3.0 mi East 8.1 mph - 0.00 in   Overcast
5:27 AM 42.1 °F 37.1 °F 39.9 °F 92% 29.75 in 2.5 mi East 8.1 mph - 0.00 in   Overcast
5:53 AM 41.0 °F 35.2 °F 39.9 °F 96% 29.76 in 2.5 mi ENE 9.2 mph - 0.00 in   Overcast
6:19 AM 41.0 °F 34.3 °F 39.9 °F 96% 29.76 in 3.0 mi East 11.5 mph - N/A   Overcast
6:37 AM 41.0 °F 35.2 °F 39.0 °F 93% 29.78 in 2.5 mi East 9.2 mph - N/A   Overcast
6:53 AM 41.0 °F 35.2 °F 39.0 °F 93% 29.78 in 2.5 mi ENE 9.2 mph - N/A   Overcast
7:53 AM 41.0 °F 34.7 °F 39.0 °F 93% 29.80 in 1.5 mi ENE 10.4 mph - N/A   Overcast
8:53 AM 41.0 °F 34.7 °F 39.9 °F 96% 29.83 in 0.8 mi ENE 10.4 mph - N/A   Overcast
9:22 AM 42.1 °F 36.6 °F 39.9 °F 92% 29.83 in 1.0 mi ENE 9.2 mph - N/A   Overcast
9:53 AM 43.0 °F 37.2 °F 41.0 °F 93% 29.83 in 1.5 mi ENE 10.4 mph - N/A   Overcast
10:16 AM 43.0 °F 36.8 °F 41.0 °F 93% 29.84 in 2.0 mi ENE 11.5 mph - N/A   Overcast
10:53 AM 43.0 °F 37.7 °F 41.0 °F 93% 29.84 in 2.5 mi ENE 9.2 mph - N/A   Overcast
11:19 AM 43.0 °F 36.8 °F 41.0 °F 93% 29.84 in 3.0 mi ENE 11.5 mph - N/A   Overcast
11:53 AM 44.1 °F 38.1 °F 42.1 °F 93% 29.83 in 5.0 mi East 11.5 mph - N/A   Overcast
12:53 PM 44.1 °F 38.1 °F 42.1 °F 93% 29.82 in 4.0 mi East 11.5 mph - N/A   Overcast
1:53 PM 45.0 °F 39.7 °F 42.1 °F 90% 29.81 in 3.0 mi East 10.4 mph - N/A   Overcast
2:10 PM 45.0 °F 40.1 °F 43.0 °F 93% 29.81 in 2.5 mi East 9.2 mph - N/A   Overcast
2:53 PM 45.0 °F 41.2 °F 43.0 °F 93% 29.80 in 1.5 mi East 6.9 mph - N/A   Overcast
3:16 PM 46.0 °F 41.9 °F 44.1 °F 93% 29.79 in 2.0 mi ENE 8.1 mph - N/A   Overcast
3:38 PM 46.0 °F 41.9 °F 44.1 °F 93% 29.79 in 1.8 mi ENE 8.1 mph - N/A   Overcast
3:53 PM 46.0 °F 41.9 °F 44.1 °F 93% 29.80 in 3.0 mi East 8.1 mph - N/A   Overcast
4:53 PM 46.9 °F - 44.1 °F 90% 29.80 in 7.0 mi ENE 11.5 mph - 0.00 in   Overcast
5:53 PM 46.9 °F - 45.0 °F 93% 29.81 in 5.0 mi ENE 9.2 mph - N/A   Overcast
6:53 PM 46.9 °F - 44.1 °F 90% 29.83 in 10.0 mi ENE 9.2 mph - N/A   Overcast
7:53 PM 46.0 °F 41.4 °F 43.0 °F 89% 29.83 in 10.0 mi East 9.2 mph - N/A   Overcast
8:53 PM 46.0 °F 41.0 °F 42.1 °F 86% 29.83 in 10.0 mi East 10.4 mph - N/A   Overcast
9:53 PM 45.0 °F 39.7 °F 41.0 °F 86% 29.84 in 10.0 mi East 10.4 mph - N/A   Overcast
10:53 PM 45.0 °F 39.7 °F 41.0 °F 86% 29.85 in 10.0 mi East 10.4 mph - N/A   Overcast
11:33 PM 45.0 °F 41.2 °F 41.0 °F 86% 29.85 in 10.0 mi East 6.9 mph - N/A   Overcast
11:53 PM 44.1 °F 40.8 °F 41.0 °F 89% 29.85 in 9.0 mi East 5.8 mph - N/A   Overcast